Location: Hains Lake
(37.8540°N, 99.8578°W)
Time: 10:57:26
(UTC+00:00)

Tiros 1 despin weight - Pass Details

Date: 25 April 2021
Orbit: 593 x 642 km, 48.2° (Epoch: 07 May)

Event Time Altitude Azimuth Distance (km) Brightness Sun altitude
Rises 09:48:32 0° 242° (WSW) 2,926 - -22.0°
Reaches altitude 10° 09:50:53 10° 245° (WSW) 2,016 - -21.6°
Exits shadow 09:54:31 51° 268° (W) 792 ? -21.1°
Maximum altitude 09:55:31 69° 329° (NNW) 676 ? -20.9°
Drops below altitude 10° 10:00:06 10° 53° (NE) 1,997 ? -20.2°
Sets 10:02:25 0° 56° (NE) 2,897 ? -19.8°
